User: anonymous   Login
Location: Vancouver
(49.2500°N, 123.1330°W)
Time: 09:01:29
(UTC-07:00)
Language:

ERS-2 - Orbit

View from above orbital plane
View from above orbital plane
View from above satellite
View from above satellite

Ground track
Ground track

The orbit data is extracted from the following two-line orbital elements,

1 23560U 95021A   14298.20480351  .00011368  00000-0  67289-3 0  1457
2 23560 098.5492 153.8147 0004064 346.9931 150.9665 15.11624186 28897
Epoch (UTC): 25 October 2014 04:54:55
Eccentricity: 0.0004064
inclination: 98.5492°
perigee height: 528 km
apogee height: 534 km
right ascension of ascending node: 153.8147°
argument of perigee: 346.9931°
revolutions per day: 15.11624186
mean anomaly at epoch: 150.9665°
orbit number at epoch: 2889

The dashed part of the orbit path shows where the satellite is in the earth's shadow,  

DLR